パンスターズ彗星

C/2021 R2 ( PanSTARRS )

English version
Home page
Updated on November 15, 2021

---------------------------------------------------------------------

・ プロフィール

発見日 2021年9月5日
発見光度 20.4等
発見者 Pan-STARRS 2 telescope (Haleakala)

・ 写真集

・ 軌道要素

Epoch 2021 Dec. 12.0 TT = JDT 2459560.5
T 2021 Dec. 25.47879 TT                                 Rudenko
q   7.3119982            (2000.0)            P               Q
z  +0.0002759      Peri.   32.33421     +0.91611971     -0.34739262
 +/-0.0001701      Node    16.28598     -0.26441539     -0.89875803
e   0.9979824      Incl.  134.47392     +0.30134561     +0.26749276
From 73 observations 2021 Aug. 28-Oct. 11, mean residual 0".5.

・ 光度変化

        m1 = 7.0 + 5 logΔ + 10.0 log r

---------------------------------------------------------------------

軌道要素はM.P.E.C. 2021-U31に掲載されたものです。
光度グラフはComet for Windowsで作成したものです。

---------------------------------------------------------------------

Copyright(C) Seiichi Yoshida (comet@aerith.net). All rights reserved.